Tracking 31027 objects as of 19-Jul-2025
HD Live streaming from Space Station
objects crossing your sky now

SL-14 DEB

Track SL-14 DEB now!
10-day predictions


NORAD ID: 29065
Int'l Code: 1978-100AX
Perigee: 1,678.1 km
Apogee: 1,707.8 km
Inclination: 82.5 °
Period: 120.1 minutes
Semi major axis: 8063 km
RCS: 0.015 m2 (small)
Launch date: October 26, 1978
Source: Commonwealth of Independent States (former USSR) (CIS)
Launch site: PLESETSK MISSILE AND SPACE COMPLEX (PKMTR)

Note: This is SATELLITE DEBRIS
Your satellite tracking list
FENGYUN 1C DEB
Track 1 satellite(s)




NASA's NSSDC Master Catalog

Two Line Element Set (TLE):
1 29065U 78100AX  25198.44427049 -.00000013  00000-0 -27649-3 0  9994
2 29065  82.5376 196.9838 0018401 184.8234 332.1680 11.98890413965448
Source of the keplerian elements: AFSPC